Weather History for Borden, ON

Change the Weather History Date:

Saturday, October 8, 2011

  Actual Average Record
Temperature  
Mean Temperature 62 °F -  
Max Temperature 82 °F 51 °F 82 °F (2007)
Min Temperature 42 °F 35 °F 23 °F (2001)
Degree Days  
Heating Degree Days 3    
Growing Degree Days 12 (Base 50)    
Moisture  
Dew Point 52 °F    
Average Humidity 73    
Maximum Humidity 100    
Minimum Humidity 34    
Precipitation  
Precipitation 0.02 in - - ()
Sea Level Pressure  
Sea Level Pressure 30.38 in    
Wind  
Wind Speed 4 mph ()    
Max Wind Speed 8 mph    
Max Gust Speed -    
Visibility 8.4 miles    
Events      
Averages and records for this station are not official NWS values.
T = Trace of Precipitation, MM = Missing Value Source: Averaged Metar Reports

Daily Weather History Graph

Daily Weather History Graph

Search for Another Location

Airport:

Trip Planner

Search our weather history database for the weather conditions in past years. The results will help you decide how hot, cold, wet, or windy it might be!

Date:

Astronomy

Oct. 08, 2011 Rise Set
Actual Time 7:25 AM EDT 6:48 PM EDT
Civil Twilight 6:56 AM EDT 7:17 PM EDT
Nautical Twilight 6:22 AM EDT 7:50 PM EDT
Astronomical Twilight 5:49 AM EDT 8:24 PM EDT
Moon 5:02 PM EDT (10/8) 4:05 AM EDT (10/8)
Length of Visible Light 12h 20m
Length of Day
11h 22m
Waxing Gibbous, 90% of the Moon is Illuminated
Oct 8
Waxing Gibbous
Oct 11
Full
Oct 19
Last Quarter
Oct 26
New
Nov 2
First Quarter

Hourly Weather History & Observations

Time (EDT) Temp. Windchill Dew Point Humidity Pressure Visibility Wind Dir Wind Speed Gust Speed Precip Events Conditions
12:00 AM 48.2 °F - 48.2 °F 100% 30.39 in 5.0 mi SE 2.3 mph - N/A   Partly Cloudy
2:00 AM 50 °F - 47 °F 88% 30.37 in 9 mi SSE 5.8 mph - -  
2:00 AM 50.0 °F - 48.2 °F 94% 30.37 in 9.0 mi SSE 6.9 mph - N/A   Clear
3:00 AM 48.2 °F - 46.4 °F 93% 30.36 in 9.0 mi SE 3.5 mph - N/A   Clear
5:00 AM 42.8 °F - 42.8 °F 100% 30.37 in 9.0 mi Calm Calm - N/A   Clear
6:00 AM 46.4 °F 45.2 °F 44.6 °F 93% 30.39 in 9.0 mi NE 3.5 mph - N/A   Clear
7:00 AM 42.8 °F - 42.8 °F 100% 30.41 in 5.0 mi North 2.3 mph - N/A   Clear
8:00 AM 46.4 °F 44.3 °F 44.6 °F 93% 30.42 in 9.0 mi ENE 4.6 mph - N/A   Clear
9:00 AM 57.2 °F - 53.6 °F 88% 30.43 in 9.0 mi ESE 5.8 mph - N/A   Clear
10:00 AM 66.2 °F - 55.4 °F 68% 30.42 in 9.0 mi SE 6.9 mph - N/A   Clear
11:00 AM 73.4 °F - 57.2 °F 57% 30.41 in 9.0 mi SW 6.9 mph - N/A   Clear
12:00 PM 77.0 °F - 57.2 °F 50% 30.40 in 9.0 mi WSW 8.1 mph - N/A   Clear
1:00 PM 78.8 °F - 57.2 °F 47% 30.39 in 9.0 mi WSW 6.9 mph - N/A   Clear
2:00 PM 80 °F - 56 °F 34% 30.38 in 9 mi West 4.6 mph - -  
3:00 PM 80.6 °F - 57.2 °F 45% 30.36 in 9.0 mi WSW 8.1 mph - N/A   Clear
4:00 PM 82.4 °F - 55.4 °F 39% 30.35 in 9.0 mi WSW 5.8 mph - N/A   Clear
5:00 PM 80.6 °F - 53.6 °F 39% 30.34 in 9.0 mi South 8.1 mph - N/A   Clear
6:00 PM 77.0 °F - 55.4 °F 47% 30.35 in 9.0 mi SSW 4.6 mph - N/A   Clear
8:00 PM 62 °F - 53 °F 66% 30.37 in 9 mi SSE 6.9 mph - -  
8:00 PM 62.6 °F - 53.6 °F 72% 30.37 in 9.0 mi SSE 6.9 mph - N/A   Clear
9:00 PM 60.8 °F - 55.4 °F 82% 30.37 in 9.0 mi South 6.9 mph - N/A   Clear
10:00 PM 53.6 °F - 53.6 °F 100% 30.36 in 7.0 mi Calm Calm - N/A   Clear
11:00 PM 53.6 °F - 51.8 °F 94% 30.36 in 6.0 mi SSE 8.1 mph - N/A   Clear